Tanner, AL

9:44 AM CST on January 22, 2017 (GMT -0600)
Pryor Regional

Weather History for KDCU - April, 2013

Change the Weather History Date:

Wednesday, April 24, 2013

  Actual Average Record
Temperature  
Mean Temperature 55 °F -  
Max Temperature 64 °F 74 °F 90 °F (1950)
Min Temperature 46 °F 50 °F 35 °F (1986)
Degree Days  
Heating Degree Days 10    
Growing Degree Days 5 (Base 50)    
Moisture  
Dew Point 51 °F    
Average Humidity 82    
Maximum Humidity 94    
Minimum Humidity 68    
Precipitation  
Precipitation 0.34 in - - ()
Sea Level Pressure  
Sea Level Pressure 30.11 in    
Wind  
Wind Speed 12 mph (West)    
Max Wind Speed 21 mph    
Max Gust Speed 31 mph    
Visibility 9 miles    
Events Rain    
Averages and records for this station are not official NWS values.
T = Trace of Precipitation, MM = Missing Value Source: NWS Daily Summary

Daily Weather History Graph

Daily Weather History Graph

Search for Another Location

Airport or City:

Trip Planner

Search our weather history database for the weather conditions in past years. The results will help you decide how hot, cold, wet, or windy it might be!

Date:

Astronomy

Apr. 24, 2013 Rise Set
Actual Time 6:04 AM CDT 7:27 PM CDT
Civil Twilight 5:38 AM CDT 7:53 PM CDT
Nautical Twilight 5:06 AM CDT 8:25 PM CDT
Astronomical Twilight 4:33 AM CDT 8:58 PM CDT
Moon 6:31 PM CDT (4/24) 5:05 AM CDT (4/24)
Length of Visible Light 14h 15m
Length of Day
13h 22m
Waxing Gibbous, 98% of the Moon is Illuminated
Apr 24
Waxing Gibbous
Apr 25
Full
May 2
Last Quarter
May 9
New
May 17
First Quarter

Hourly Weather History & Observations

Time (CDT) Temp. Dew Point Humidity Pressure Visibility Wind Dir Wind Speed Gust Speed Precip Events Conditions
12:53 AM 64.0 °F 54.0 °F 70% 30.01 in 10.0 mi South 12.7 mph - N/A   Overcast
1:53 AM 64.9 °F 54.0 °F 68% 30.00 in 10.0 mi South 12.7 mph - N/A   Overcast
2:53 AM 64.0 °F 54.0 °F 70% 29.98 in 10.0 mi South 12.7 mph 21.9 mph N/A   Clear
3:53 AM 64.0 °F 55.0 °F 73% 29.99 in 10.0 mi South 15.0 mph - N/A   Clear
5:53 AM 63.0 °F 55.9 °F 78% 29.97 in 10.0 mi South 17.3 mph - N/A   Partly Cloudy
6:53 AM 64.0 °F 57.0 °F 78% 29.97 in 10.0 mi South 16.1 mph 26.5 mph N/A   Mostly Cloudy
7:53 AM 64.0 °F 57.0 °F 78% 29.97 in 10.0 mi South 20.7 mph 25.3 mph N/A   Mostly Cloudy
8:53 AM 64.0 °F 55.9 °F 75% 30.02 in 10.0 mi SSW 19.6 mph 26.5 mph N/A   Overcast
9:17 AM 62.6 °F 57.2 °F 82% 30.04 in 10.0 mi SSW 12.7 mph - 0.01 in   Overcast
9:53 AM 63.0 °F 59.0 °F 87% 30.04 in 5.0 mi SW 10.4 mph - 0.02 in Rain Rain
10:04 AM 60.8 °F 57.2 °F 88% 30.08 in 4.0 mi West 15.0 mph 31.1 mph 0.02 in Rain Light Rain
10:30 AM 60.8 °F 57.2 °F 88% 30.10 in 6.0 mi WSW 6.9 mph - 0.05 in Rain Light Rain
10:39 AM 60.8 °F 57.2 °F 88% 30.11 in 1.8 mi West 10.4 mph - 0.12 in Rain Heavy Rain
10:53 AM 59.0 °F 57.0 °F 93% 30.09 in 2.5 mi WSW 5.8 mph - 0.19 in Rain Rain
11:02 AM 59.0 °F 57.2 °F 94% 30.09 in 3.0 mi West 3.5 mph - 0.02 in Rain Rain
11:41 AM 60.8 °F 57.2 °F 88% 30.09 in 6.0 mi West 6.9 mph - 0.09 in Rain Light Rain
11:53 AM 59.0 °F 57.0 °F 93% 30.09 in 10.0 mi West 15.0 mph - 0.10 in Rain Light Rain
12:17 PM 57.2 °F 55.4 °F 94% 30.12 in 10.0 mi West 18.4 mph 24.2 mph 0.01 in Rain Light Rain
12:53 PM 51.1 °F 48.0 °F 89% 30.13 in 10.0 mi WNW 15.0 mph - 0.02 in Rain Light Rain
1:36 PM 51.8 °F 48.2 °F 88% 30.13 in 9.0 mi NNW 10.4 mph - 0.00 in Rain Light Rain
1:53 PM 51.1 °F 48.9 °F 92% 30.13 in 10.0 mi NW 11.5 mph - 0.00 in Rain Light Rain
2:09 PM 51.8 °F 48.2 °F 88% 30.14 in 10.0 mi NW 9.2 mph - N/A   Overcast
2:53 PM 51.1 °F 46.9 °F 86% 30.14 in 10.0 mi WNW 8.1 mph - 0.00 in Rain Light Rain
3:48 PM 51.8 °F 48.2 °F 88% 30.15 in 10.0 mi WNW 5.8 mph - 0.01 in Rain Light Rain
3:53 PM 52.0 °F 48.0 °F 86% 30.15 in 10.0 mi NW 5.8 mph - 0.01 in Rain Light Rain
4:53 PM 53.1 °F 46.9 °F 80% 30.17 in 10.0 mi NNW 11.5 mph 20.7 mph 0.00 in   Overcast
5:53 PM 53.1 °F 44.1 °F 71% 30.18 in 10.0 mi North 11.5 mph - N/A   Overcast
6:53 PM 53.1 °F 46.0 °F 77% 30.19 in 10.0 mi North 6.9 mph - N/A   Overcast
7:53 PM 51.1 °F 43.0 °F 74% 30.21 in 10.0 mi North 9.2 mph - N/A   Overcast
8:53 PM 48.9 °F 41.0 °F 74% 30.23 in 10.0 mi North 8.1 mph - N/A   Overcast
9:53 PM 48.0 °F 41.0 °F 77% 30.25 in 10.0 mi NNW 6.9 mph - N/A   Overcast
10:53 PM 46.9 °F 39.0 °F 74% 30.27 in 10.0 mi North 9.2 mph - N/A   Overcast
11:53 PM 48.0 °F 39.0 °F 71% 30.28 in 10.0 mi NNE 10.4 mph - N/A   Overcast